User: anonymous   Login
Location: ??????
(30.5519°N, 47.7720°E)
Time: 05:01:18
(UTC+00:00)
Language:

CZ-4B R/B - Orbit

View from above orbital plane
View from above orbital plane
View from above satellite
View from above satellite

Ground track
Ground track

The orbit data is extracted from the following two-line orbital elements,

1 29093U 06015B   21101.79369411  .00003449  00000-0  63959-4 0  9996
2 29093  97.6342 290.3680 0049268 321.7266  38.0490 15.48423854832618
Epoch (UTC): 11 April 2021 19:02:55
Eccentricity: 0.0049268
inclination: 97.6342°
perigee height: 388 km
apogee height: 455 km
right ascension of ascending node: 290.3680°
argument of perigee: 321.7266°
revolutions per day: 15.48423854
mean anomaly at epoch: 38.0490°
orbit number at epoch: 83261

The dashed part of the orbit path shows where the satellite is in the earth's shadow,  

DLR